Weather History for Jackson, WY

Change the Weather History Date:

Thursday, May 23, 2013

  Actual Average Record
Temperature  
Mean Temperature 50 °F -  
Max Temperature 64 °F 63 °F 80 °F (1967)
Min Temperature 37 °F 32 °F 15 °F (1966)
Degree Days  
Heating Degree Days 14    
Moisture  
Dew Point 31 °F    
Average Humidity 58    
Maximum Humidity 81    
Minimum Humidity 24    
Precipitation  
Precipitation 0.00 in - - ()
Sea Level Pressure  
Sea Level Pressure 29.86 in    
Wind  
Wind Speed 8 mph (SW)    
Max Wind Speed 21 mph    
Max Gust Speed 32 mph    
Visibility 10 miles    
Events      
Averages and records for this station are not official NWS values.
T = Trace of Precipitation, MM = Missing Value Source: NWS Daily Summary

Daily Weather History Graph

Daily Weather History Graph

Search for Another Location

Airport:

Trip Planner

Search our weather history database for the weather conditions in past years. The results will help you decide how hot, cold, wet, or windy it might be!

Date:

Astronomy

May. 23, 2013 Rise Set
Actual Time 5:50 AM MDT 8:49 PM MDT
Civil Twilight 5:16 AM MDT 9:24 PM MDT
Nautical Twilight 4:32 AM MDT 10:07 PM MDT
Astronomical Twilight 3:41 AM MDT 10:59 PM MDT
Moon 7:24 PM MDT 4:40 AM MDT
Length of Visible Light 16h 07m
Length of Day
14h 59m
Waxing Gibbous, 97% of the Moon is Illuminated
May 23
Waxing Gibbous
May 24
Full
May 31
Last Quarter
Jun 8
New
Jun 16
First Quarter

Hourly Weather History & Observations

Time (MDT) Temp. Windchill Dew Point Humidity Pressure Visibility Wind Dir Wind Speed Gust Speed Precip Events Conditions
12:15 AM 44.6 °F 38.4 °F 37.4 °F 76% 29.84 in 10.0 mi North 12.7 mph 18.4 mph N/A   Mostly Cloudy
12:35 AM 42.8 °F 37.0 °F 35.6 °F 76% 29.87 in 10.0 mi NNE 10.4 mph - N/A   Mostly Cloudy
1:15 AM 42.8 °F 36.6 °F 35.6 °F 76% 29.86 in 10.0 mi North 11.5 mph - N/A   Overcast
1:55 AM 41.0 °F 33.1 °F 33.8 °F 76% 29.83 in 10.0 mi North 15.0 mph 18.4 mph N/A   Scattered Clouds
2:15 AM 42.8 °F 39.3 °F 33.8 °F 70% 29.84 in 10.0 mi North 5.8 mph - N/A   Mostly Cloudy
2:35 AM 41.0 °F 39.0 °F 33.8 °F 76% 29.84 in 10.0 mi NW 3.5 mph - N/A   Mostly Cloudy
2:55 AM 42.8 °F 38.6 °F 35.6 °F 76% 29.85 in 10.0 mi North 6.9 mph - N/A   Scattered Clouds
3:15 AM 42.8 °F - 35.6 °F 76% 29.85 in 10.0 mi Calm Calm - N/A   Partly Cloudy
3:35 AM 41.0 °F 36.4 °F 35.6 °F 81% 29.85 in 10.0 mi South 6.9 mph - N/A   Clear
3:55 AM 39.2 °F 34.2 °F 30.2 °F 70% 29.85 in 10.0 mi SSW 6.9 mph - N/A   Partly Cloudy
4:15 AM 39.2 °F 33.6 °F 28.4 °F 65% 29.86 in 10.0 mi South 8.1 mph - N/A   Partly Cloudy
4:35 AM 39.2 °F 37.0 °F 30.2 °F 70% 29.87 in 10.0 mi SSW 3.5 mph - N/A   Clear
4:55 AM 39.2 °F 35.0 °F 30.2 °F 70% 29.88 in 10.0 mi SSW 5.8 mph - N/A   Clear
5:15 AM 39.2 °F 33.0 °F 30.2 °F 70% 29.88 in 10.0 mi South 9.2 mph - N/A   Clear
5:35 AM 37.4 °F 31.4 °F 30.2 °F 75% 29.89 in 10.0 mi SSW 8.1 mph - N/A   Clear
5:55 AM 37.4 °F 32.1 °F 30.2 °F 75% 29.89 in 10.0 mi SSW 6.9 mph - N/A   Clear
6:15 AM 37.4 °F 34.9 °F 30.2 °F 75% 29.90 in 10.0 mi SSW 3.5 mph - N/A   Clear
6:35 AM 37.4 °F - 30.2 °F 75% 29.90 in 10.0 mi Calm Calm - N/A   Clear
6:52 AM 37.4 °F - 32.0 °F 81% 29.91 in 10.0 mi Calm Calm - N/A   Clear
7:51 AM 37.4 °F - 32.0 °F 81% 29.91 in 10.0 mi Calm Calm - N/A   Clear
8:55 AM 39.2 °F 37.0 °F 32.0 °F 75% 29.91 in 10.0 mi WSW 3.5 mph - N/A   Scattered Clouds
9:55 AM 42.8 °F 40.1 °F 32.0 °F 66% 29.92 in 10.0 mi South 4.6 mph - N/A   Scattered Clouds
10:51 AM 44.6 °F - 32.0 °F 61% 29.90 in 10.0 mi Calm Calm - N/A   Partly Cloudy
12:55 PM 53.6 °F - 33.8 °F 47% 29.85 in 10.0 mi SE 3.5 mph - N/A   Scattered Clouds
1:51 PM 59.0 °F - 30.2 °F 34% 29.84 in 10.0 mi South 5.8 mph - N/A   Partly Cloudy
2:51 PM 64.4 °F - 30.2 °F 28% 29.80 in 10.0 mi SW 8.1 mph - N/A   Clear
3:51 PM 64.4 °F - 26.6 °F 24% 29.78 in 10.0 mi SSW 17.3 mph 28.8 mph N/A   Partly Cloudy
4:51 PM 62.6 °F - 26.6 °F 26% 29.78 in 10.0 mi SSW 18.4 mph 25.3 mph N/A   Mostly Cloudy
5:51 PM 62.6 °F - 28.4 °F 27% 29.80 in 10.0 mi SSW 17.3 mph 26.5 mph N/A   Partly Cloudy
6:51 PM 57.2 °F - 26.6 °F 31% 29.84 in 10.0 mi SW 20.7 mph - N/A   Mostly Cloudy
7:51 PM 53.6 °F - 26.6 °F 35% 29.84 in 10.0 mi South 8.1 mph - N/A   Mostly Cloudy
8:51 PM 51.8 °F - 26.6 °F 38% 29.83 in 10.0 mi South 8.1 mph - N/A   Scattered Clouds
8:55 PM 51.8 °F - 26.6 °F 38% 29.83 in 10.0 mi South 8.1 mph - N/A   Partly Cloudy
9:15 PM 48.2 °F - 28.4 °F 46% 29.84 in 10.0 mi WSW 5.8 mph - N/A   Clear
9:35 PM 48.2 °F - 28.4 °F 46% 29.85 in 10.0 mi NNE 4.6 mph - N/A   Clear
9:55 PM 50.0 °F - 30.2 °F 47% 29.85 in 10.0 mi Calm Calm - N/A   Clear
10:15 PM 51.8 °F - 33.8 °F 50% 29.85 in 10.0 mi WNW 10.4 mph 18.4 mph N/A   Clear
10:35 PM 51.8 °F - 33.8 °F 50% 29.86 in 10.0 mi West 12.7 mph - N/A   Clear
10:55 PM 48.2 °F - 30.2 °F 50% 29.88 in 10.0 mi West 10.4 mph 18.4 mph N/A   Clear
11:15 PM 48.2 °F - 28.4 °F 46% 29.89 in 10.0 mi West 15.0 mph 21.9 mph N/A   Mostly Cloudy
11:35 PM 46.4 °F 41.1 °F 26.6 °F 46% 29.91 in 10.0 mi West 11.5 mph 29.9 mph N/A   Overcast
11:55 PM 46.4 °F 40.1 °F 24.8 °F 43% 29.93 in 10.0 mi WSW 15.0 mph 32.2 mph N/A   Mostly Cloudy